| time (UTC) | temp F | wind direction | speed MPH | gust MPH | rain 1hr in | rain 24hr in | rain mn in | humidity % | barometer mb |
| 20260906182607 | 61 | 0.0 | 0.0 | 0.00 | 0.00 | 0.00 | 72 | 1027.1 | |
| 20260906181606 | 63 | 0.0 | 0.0 | 0.00 | 0.00 | 0.00 | 71 | 1027.2 | |
| 20260906180603 | 63 | 0.0 | 0.0 | 0.00 | 0.00 | 0.00 | 70 | 1027.0 | |
| 20260906175601 | 65 | 0.0 | 0.0 | 0.00 | 0.00 | 0.00 | 67 | 1027.3 | |
| 20260906174559 | 66 | 0.0 | 0.0 | 0.00 | 0.00 | 0.00 | 65 | 1027.2 | |
| 20260906173557 | 68 | 90 | 0.0 | 2.0 | 0.00 | 0.00 | 0.00 | 61 | 1027.3 |
| 20260906172615 | 69 | 0.0 | 0.0 | 0.00 | 0.00 | 0.00 | 59 | 1027.3 | |
| 20260906171553 | 69 | 0.0 | 0.0 | 0.00 | 0.00 | 0.00 | 60 | 1027.4 | |
| 20260906170551 | 69 | 0.0 | 0.0 | 0.00 | 0.00 | 0.00 | 61 | 1027.5 | |
| 20260906165549 | 67 | 0.0 | 0.0 | 0.00 | 0.00 | 0.00 | 61 | 1030.5 | |
| 20260906164547 | 0 | 0.0 | 0.0 | 0.00 | 0.00 | 0.00 | 1031.1 | ||
| 20260906163545 | 0 | 0.0 | 0.0 | 0.00 | 0.00 | 0.00 | 1031.2 | ||
| 20260906162543 | 0 | 0.0 | 0.0 | 0.00 | 0.00 | 0.00 | 1031.2 | ||
| 20260906161601 | 69 | 293 | 1.0 | 2.0 | 0.00 | 0.00 | 0.00 | 55 | 1027.7 |
| 20260906160539 | 69 | 293 | 1.0 | 2.0 | 0.00 | 0.00 | 0.00 | 55 | 1030.8 |
| 20260906155537 | 0 | 0.0 | 0.0 | 0.00 | 0.00 | 0.00 | 1031.4 | ||
| 20260906154535 | 0 | 0.0 | 0.0 | 0.00 | 0.00 | 0.00 | 1031.5 | ||
| 20260906153533 | 0 | 0.0 | 0.0 | 0.00 | 0.00 | 0.00 | 1031.6 | ||
| 20260906152531 | 70 | 0.0 | 2.0 | 0.00 | 0.00 | 0.00 | 54 | 1028.8 | |
| 20260906151529 | 70 | 293 | 1.0 | 2.0 | 0.00 | 0.00 | 0.00 | 54 | 1030.0 |
| 20260906150527 | 0 | 0.0 | 0.0 | 0.00 | 0.00 | 0.00 | 1031.7 | ||
| 20260906145525 | 0 | 0.0 | 0.0 | 0.00 | 0.00 | 0.00 | 1031.8 | ||
| 20260906144523 | 0 | 0.0 | 0.0 | 0.00 | 0.00 | 0.00 | 1031.8 | ||
| 20260906143521 | 73 | 315 | 2.0 | 4.0 | 0.00 | 0.00 | 0.00 | 50 | 1028.5 |
| 20260906142519 | 72 | 295 | 1.0 | 4.0 | 0.00 | 0.00 | 0.00 | 51 | 1028.5 |
| 20260906141557 | 72 | 270 | 2.0 | 2.0 | 0.00 | 0.00 | 0.00 | 51 | 1028.5 |
| 20260906140515 | 71 | 113 | 2.0 | 2.0 | 0.00 | 0.00 | 0.00 | 51 | 1028.6 |
| 20260906135613 | 71 | 248 | 2.0 | 2.0 | 0.00 | 0.00 | 0.00 | 51 | 1029.7 |
| 20260906134611 | 71 | 248 | 2.0 | 2.0 | 0.00 | 0.00 | 0.00 | 51 | 1030.5 |
| 20260906133609 | 0 | 0.0 | 0.0 | 0.00 | 0.00 | 0.00 | 1032.2 | ||
| 20260906132607 | 0 | 0.0 | 0.0 | 0.00 | 0.00 | 0.00 | 1032.3 | ||
| 20260906131605 | 0 | 0.0 | 0.0 | 0.00 | 0.00 | 0.00 | 1032.4 | ||
| 20260906130623 | 69 | 315 | 2.0 | 4.0 | 0.00 | 0.00 | 0.00 | 55 | 1029.1 |
| 20260906125601 | 69 | 270 | 1.0 | 4.0 | 0.00 | 0.00 | 0.00 | 58 | 1029.1 |
| 20260906124559 | 69 | 96 | 1.0 | 2.0 | 0.00 | 0.00 | 0.00 | 58 | 1029.1 |
| 20260906123557 | 68 | 248 | 2.0 | 4.0 | 0.00 | 0.00 | 0.00 | 60 | 1029.1 |
| 20260906122555 | 67 | 248 | 2.0 | 2.0 | 0.00 | 0.00 | 0.00 | 60 | 1029.2 |
| 20260906121553 | 67 | 282 | 2.0 | 4.0 | 0.00 | 0.00 | 0.00 | 61 | 1030.6 |
| 20260906120551 | 66 | 113 | 1.0 | 4.0 | 0.00 | 0.00 | 0.00 | 60 | 1029.4 |
| 20260906115549 | 66 | 255 | 1.0 | 4.0 | 0.00 | 0.00 | 0.00 | 60 | 1029.4 |
| 20260906114547 | 66 | 315 | 2.0 | 4.0 | 0.00 | 0.00 | 0.00 | 62 | 1029.6 |
| 20260906113545 | 66 | 101 | 1.0 | 4.0 | 0.00 | 0.00 | 0.00 | 63 | 1029.7 |
| 20260906112543 | 66 | 109 | 1.0 | 4.0 | 0.00 | 0.00 | 0.00 | 61 | 1029.7 |
| 20260906111541 | 65 | 315 | 2.0 | 4.0 | 0.00 | 0.00 | 0.00 | 62 | 1031.6 |
| 20260906110539 | 65 | 270 | 2.0 | 4.0 | 0.00 | 0.00 | 0.00 | 60 | 1029.6 |
| 20260906105537 | 65 | 252 | 2.0 | 4.0 | 0.00 | 0.00 | 0.00 | 60 | 1029.7 |
| 20260906104535 | 65 | 293 | 3.0 | 6.0 | 0.00 | 0.00 | 0.00 | 61 | 1029.7 |
| 20260906103533 | 65 | 293 | 2.0 | 4.0 | 0.00 | 0.00 | 0.00 | 61 | 1029.8 |
| 20260906102531 | 63 | 0.0 | 2.0 | 0.00 | 0.00 | 0.00 | 63 | 1029.7 | |
| 20260906101528 | 63 | 105 | 1.0 | 2.0 | 0.00 | 0.00 | 0.00 | 64 | 1029.7 |
| 20260906100526 | 62 | 113 | 2.0 | 4.0 | 0.00 | 0.00 | 0.00 | 66 | 1029.7 |
| 20260906095525 | 62 | 0.0 | 2.0 | 0.00 | 0.00 | 0.00 | 70 | 1030.5 | |
| 20260906094523 | 62 | 113 | 0.0 | 4.0 | 0.00 | 0.00 | 0.00 | 70 | 1029.9 |
| 20260906093520 | 62 | 113 | 1.0 | 4.0 | 0.00 | 0.00 | 0.00 | 70 | 1031.8 |
| 20260906092518 | 62 | 68 | 1.0 | 2.0 | 0.00 | 0.00 | 0.00 | 70 | 1029.9 |
| 20260906091516 | 62 | 68 | 1.0 | 2.0 | 0.00 | 0.00 | 0.00 | 70 | 1033.2 |
| 20260906090514 | 0 | 0.0 | 0.0 | 0.00 | 0.00 | 0.00 | 1033.9 | ||
| 20260906085613 | 0 | 0.0 | 0.0 | 0.00 | 0.00 | 0.00 | 1033.9 | ||
| 20260906084610 | 60 | 270 | 2.0 | 2.0 | 0.00 | 0.00 | 0.00 | 74 | 1029.9 |
| 20260906083608 | 60 | 270 | 2.0 | 2.0 | 0.00 | 0.00 | 0.00 | 73 | 1029.9 |
| 20260906082606 | 60 | 293 | 1.0 | 2.0 | 0.00 | 0.00 | 0.00 | 75 | 1029.9 |
| 20260906081605 | 59 | 0.0 | 2.0 | 0.00 | 0.00 | 0.00 | 78 | 1029.8 | |
| 20260906080603 | 58 | 270 | 0.0 | 4.0 | 0.00 | 0.00 | 0.00 | 79 | 1029.8 |
| 20260906075600 | 57 | 270 | 1.0 | 4.0 | 0.00 | 0.00 | 0.00 | 82 | 1029.7 |
| 20260906074559 | 56 | 293 | 0.0 | 4.0 | 0.00 | 0.00 | 0.00 | 84 | 1029.4 |
| 20260906073617 | 55 | 90 | 0.0 | 2.0 | 0.00 | 0.00 | 0.00 | 86 | 1029.2 |
| 20260906072554 | 54 | 0.0 | 2.0 | 0.00 | 0.00 | 0.00 | 87 | 1029.2 | |
| 20260906071552 | 54 | 113 | 0.0 | 4.0 | 0.00 | 0.00 | 0.00 | 88 | 1029.1 |
| 20260906070550 | 53 | 113 | 1.0 | 4.0 | 0.00 | 0.00 | 0.00 | 89 | 1028.9 |
| 20260906065548 | 52 | 70 | 1.0 | 2.0 | 0.00 | 0.00 | 0.00 | 92 | 1029.0 |
| 20260906064546 | 51 | 0.0 | 2.0 | 0.00 | 0.00 | 0.00 | 93 | 1028.9 | |
| 20260906063604 | 50 | 113 | 0.0 | 2.0 | 0.00 | 0.00 | 0.00 | 94 | 1029.0 |
| 20260906062542 | 50 | 0.0 | 2.0 | 0.00 | 0.00 | 0.00 | 94 | 1028.8 | |
| 20260906061620 | 49 | 68 | 0.0 | 2.0 | 0.00 | 0.00 | 0.00 | 95 | 1029.0 |
| 20260906060538 | 48 | 101 | 2.0 | 4.0 | 0.00 | 0.00 | 0.00 | 95 | 1028.8 |
| 20260906055536 | 48 | 68 | 0.0 | 2.0 | 0.00 | 0.00 | 0.00 | 95 | 1028.7 |
| 20260906054614 | 48 | 56 | 0.0 | 4.0 | 0.00 | 0.00 | 0.00 | 95 | 1028.5 |
| 20260906053532 | 47 | 45 | 0.0 | 2.0 | 0.00 | 0.00 | 0.00 | 95 | 1028.2 |
| 20260906052530 | 48 | 0.0 | 2.0 | 0.00 | 0.00 | 0.00 | 95 | 1028.5 | |
| 20260906051528 | 48 | 0.0 | 2.0 | 0.00 | 0.00 | 0.00 | 95 | 1028.3 | |
| 20260906050526 | 48 | 70 | 1.0 | 2.0 | 0.00 | 0.00 | 0.00 | 96 | 1028.2 |
| 20260906045524 | 48 | 0.0 | 2.0 | 0.00 | 0.00 | 0.00 | 95 | 1028.3 | |
| 20260906044522 | 48 | 90 | 0.0 | 2.0 | 0.00 | 0.00 | 0.00 | 95 | 1030.4 |
| 20260906043520 | 0 | 0.0 | 0.0 | 0.00 | 0.00 | 0.00 | 1032.7 | ||
| 20260906042518 | 48 | 0.0 | 0.0 | 0.00 | 0.00 | 0.00 | 95 | 1028.0 | |
| 20260906041516 | 48 | 0.0 | 0.0 | 0.00 | 0.00 | 0.00 | 94 | 1027.9 | |
| 20260906040614 | 48 | 113 | 0.0 | 2.0 | 0.00 | 0.00 | 0.00 | 94 | 1027.9 |
| 20260906035612 | 49 | 0.0 | 0.0 | 0.00 | 0.00 | 0.00 | 94 | 1028.0 | |
| 20260906034610 | 0 | 0.0 | 0.0 | 0.00 | 0.00 | 0.00 | 1032.7 | ||
| 20260906033608 | 49 | 0.0 | 0.0 | 0.00 | 0.00 | 0.00 | 92 | 1031.9 | |
| 20260906032626 | 49 | 0.0 | 0.0 | 0.00 | 0.00 | 0.00 | 92 | 1028.2 | |
| 20260906031604 | 50 | 0.0 | 0.0 | 0.00 | 0.00 | 0.00 | 92 | 1028.1 | |
| 20260906030602 | 50 | 0.0 | 2.0 | 0.00 | 0.00 | 0.00 | 91 | 1028.0 | |
| 20260906025600 | 51 | 113 | 0.0 | 2.0 | 0.00 | 0.00 | 0.00 | 91 | 1028.1 |
| 20260906024558 | 51 | 0.0 | 0.0 | 0.00 | 0.00 | 0.00 | 91 | 1028.1 | |
| 20260906023556 | 51 | 113 | 0.0 | 2.0 | 0.00 | 0.00 | 0.00 | 91 | 1028.0 |
| 20260906022554 | 51 | 0.0 | 2.0 | 0.00 | 0.00 | 0.00 | 91 | 1028.1 | |
| 20260906021552 | 51 | 113 | 0.0 | 2.0 | 0.00 | 0.00 | 0.00 | 90 | 1028.0 |
| 20260906020550 | 51 | 113 | 0.0 | 2.0 | 0.00 | 0.00 | 0.00 | 90 | 1028.0 |
| 20260906015548 | 51 | 0.0 | 2.0 | 0.00 | 0.00 | 0.00 | 89 | 1027.9 | |
| 20260906014546 | 52 | 113 | 0.0 | 2.0 | 0.00 | 0.00 | 0.00 | 89 | 1027.7 |
| 20260906013544 | 52 | 0.0 | 2.0 | 0.00 | 0.00 | 0.00 | 89 | 1027.6 | |
| 20260906012542 | 52 | 113 | 0.0 | 2.0 | 0.00 | 0.00 | 0.00 | 88 | 1027.6 |
| 20260906011620 | 53 | 135 | 1.0 | 2.0 | 0.00 | 0.00 | 0.00 | 87 | 1027.3 |
| 20260906010538 | 0 | 0.0 | 0.0 | 0.00 | 0.00 | 0.00 | 1031.9 | ||
| 20260906005536 | 53 | 0.0 | 0.0 | 0.00 | 0.00 | 0.00 | 87 | 1027.3 | |
| 20260906004534 | 53 | 180 | 0.0 | 2.0 | 0.00 | 0.00 | 0.00 | 87 | 1027.3 |
| 20260906003532 | 53 | 0.0 | 2.0 | 0.00 | 0.00 | 0.00 | 86 | 1027.2 | |
| 20260906002530 | 53 | 0.0 | 0.0 | 0.00 | 0.00 | 0.00 | 85 | 1027.3 | |
| 20260906001528 | 0 | 0.0 | 0.0 | 0.00 | 0.00 | 0.00 | 1031.6 | ||
| 20260906000526 | 0 | 0.0 | 0.0 | 0.00 | 0.00 | 0.00 | 1031.6 | ||
| 20260905235524 | 55 | 0.0 | 2.0 | 0.00 | 0.00 | 0.00 | 83 | 1028.7 | |
| 20260905234602 | 55 | 0.0 | 2.0 | 0.00 | 0.00 | 0.00 | 83 | 1027.2 | |
| 20260905233520 | 55 | 158 | 0.0 | 2.0 | 0.00 | 0.00 | 0.00 | 82 | 1027.0 |
| 20260905232518 | 55 | 248 | 1.0 | 4.0 | 0.00 | 0.00 | 0.00 | 81 | 1026.9 |
| 20260905231516 | 56 | 257 | 2.0 | 6.0 | 0.00 | 0.00 | 0.00 | 81 | 1026.9 |
| 20260905230614 | 55 | 256 | 3.0 | 6.0 | 0.00 | 0.00 | 0.00 | 82 | 1026.9 |
| 20260905225632 | 0 | 0.0 | 0.0 | 0.00 | 0.00 | 0.00 | 1031.0 | ||
| 20260905224610 | 0 | 0.0 | 0.0 | 0.00 | 0.00 | 0.00 | 1031.1 | ||
| 20260905223608 | 0 | 0.0 | 0.0 | 0.00 | 0.00 | 0.00 | 1031.1 | ||
| 20260905222626 | 0 | 0.0 | 0.0 | 0.00 | 0.00 | 0.00 | 1030.9 | ||
| 20260905221604 | 0 | 0.0 | 0.0 | 0.00 | 0.00 | 0.00 | 1030.9 | ||
| 20260905220602 | 57 | 270 | 3.0 | 4.0 | 0.00 | 0.00 | 0.00 | 78 | 1026.8 |
| 20260905215600 | 57 | 267 | 2.0 | 4.0 | 0.00 | 0.00 | 0.00 | 78 | 1026.8 |
| 20260905214558 | 58 | 248 | 3.0 | 4.0 | 0.00 | 0.00 | 0.00 | 77 | 1026.6 |
| 20260905213556 | 58 | 248 | 2.0 | 2.0 | 0.00 | 0.00 | 0.00 | 78 | 1026.6 |
| 20260905212554 | 57 | 252 | 2.0 | 4.0 | 0.00 | 0.00 | 0.00 | 80 | 1027.1 |
| 20260905211552 | 57 | 248 | 1.0 | 4.0 | 0.00 | 0.00 | 0.00 | 80 | 1027.8 |
| 20260905210550 | 0 | 0.0 | 0.0 | 0.00 | 0.00 | 0.00 | 1030.4 | ||
| 20260905205548 | 0 | 0.0 | 0.0 | 0.00 | 0.00 | 0.00 | 1030.3 | ||
| 20260905204546 | 0 | 0.0 | 0.0 | 0.00 | 0.00 | 0.00 | 1030.2 | ||
| 20260905203604 | 59 | 270 | 2.0 | 2.0 | 0.00 | 0.00 | 0.00 | 76 | 1026.1 |
| 20260905202541 | 59 | 253 | 2.0 | 4.0 | 0.00 | 0.00 | 0.00 | 76 | 1027.3 |
| 20260905201539 | 60 | 248 | 2.0 | 6.0 | 0.00 | 0.00 | 0.00 | 74 | 1028.0 |
| 20260905200557 | 60 | 255 | 2.0 | 6.0 | 0.00 | 0.00 | 0.00 | 74 | 1025.9 |
| 20260905195535 | 60 | 261 | 2.0 | 4.0 | 0.00 | 0.00 | 0.00 | 74 | 1025.8 |
| 20260905194533 | 61 | 248 | 2.0 | 2.0 | 0.00 | 0.00 | 0.00 | 72 | 1025.9 |
| 20260905193531 | 61 | 263 | 2.0 | 4.0 | 0.00 | 0.00 | 0.00 | 71 | 1025.7 |
| 20260905192529 | 61 | 248 | 3.0 | 4.0 | 0.00 | 0.00 | 0.00 | 71 | 1025.6 |
| 20260905191527 | 61 | 263 | 2.0 | 4.0 | 0.00 | 0.00 | 0.00 | 72 | 1025.5 |
| 20260905190525 | 61 | 270 | 0.0 | 2.0 | 0.00 | 0.00 | 0.00 | 72 | 1025.3 |
| 20260905185523 | 61 | 254 | 1.0 | 4.0 | 0.00 | 0.00 | 0.00 | 71 | 1025.4 |
| 20260905184521 | 62 | 273 | 3.0 | 6.0 | 0.00 | 0.00 | 0.00 | 70 | 1025.2 |
| 20260905183519 | 0 | 0.0 | 0.0 | 0.00 | 0.00 | 0.00 | 1029.1 |